STARLINK-1191, 45222

Orbit data source: Space-Track

STARLINK-1191, 45222 is a payload satellite owned by SpaceX/Seattle (US) in LEO that was launched on Mon, 17 Feb 2020 UTC via an FALCON 9 launch vehicle from the Air Force Eastern Test Range (AFETR). Payload-class satellites include a variety of spacecraft equipped with specific instruments for various scientific and technological missions. These include communications satellites like Starlink; space stations such as the ISS; scientific satellites like the Hubble; Earth observation satellites from companies like Planet Labs, Umbra, and HawkEye 360; GPS; miniature CubeSats for education and research; and military/defense satellites.

Loading next visibility...
Identifier
45222, 2020-012AW
Orbit
LEO
Country
Flag of USUS
Related business
Manufacturer
SpaceX/Seattle
Mission
Partially operational Commercial Communications
Bus & Motor
STARLINK, Unknown motor
Mass
260 kg wet, ~248 kg dry
Launch date (UTC)
2020-02-17 (6 years ago)
Launch vehicle
FALCON 9
Launch site
Air Force Eastern Test Range (AFETR)
Object type
Payload
Rocket body
Debris
Shape & HBR
Box + 1 Pan, 10.1 m
Radar Cross Section
13.562 m², Large (>1 m²)

Expand to show TLE details & history
Last TLE update: 9 hours ago

TLE from 9 hours ago
0 STARLINK-1191
1 45222U 20012AW  26169.90389928  .00035779  00000-0  88226-3 0  9992
2 45222  53.1525 245.0867 0002716 298.1671  61.9059 15.40233207351062
Epoch: 2026-06-18T21:41Z
TLE epoch observation values (Epoch: 2026-06-18T21:41:36.897Z)
Latitude
-0.00007°
Longitude
12.54236°
Altitude
445.451 km
Speed
7.647 km/s
True Right ascension
16h 20m 20s
True Declination
0° 00' 00"
Sunlit
Object was in full shadow at epoch
Visualization orbit readout
Latitude
Unknown
Longitude
Unknown
Altitude
Unknown
Speed
Unknown
Apparent Right ascension
Unknown
Apparent Declination
Unknown
Sunlit
N/A
Visualization observer readout
Local Sidereal Time
17:59:54
Azimuth
Unknown
Elevation
Unknown
Doppler factor
Unknown
Orbital elements
Apogee altitude
447.533 km
Perigee altitude
443.826 km
Semi-major axis
6,823.816 km
Eccentricity
0.00027
Inclination
53.1525°
RAAN
245.0867°
Arg. of periapsis
298.1671°
True anomaly
61.93336°
Mean anomaly
61.9059°
Eccentric anomaly
61.91963°
Mean motion
3.85037 °/min
Orbital period
93.5 mins
BSTAR
0.00088226
Loading maneuver chart data...
Computing Atmospheric mass density...

Documentation

Showing up to 5 results
|